This is the latest recevied weather packets stored in our database for station/object KE5QKR. If no packets are shown the sender has not sent any weather packets the latest 10 day(s).
| Time | Temp. | Humidity | Pressure | Rain* | Wind** | Luminosity | Snow |
|---|---|---|---|---|---|---|---|
| 1777333585 | 25° C | 80% | 1013.7 hPa | 0 mm | - | 32 W/m² | - |
| 1777333281 | 25° C | 80% | 1013.8 hPa | 0 mm | - | 36 W/m² | - |
| 1777332979 | 25.56° C | 80% | 1013.8 hPa | 0 mm | - | 38 W/m² | - |
| 1777332677 | 25.56° C | 79% | 1013.9 hPa | 0 mm | - | 41 W/m² | - |
| 1777332373 | 25.56° C | 79% | 1013.6 hPa | 0 mm | - | 45 W/m² | - |
| 1777332070 | 25.56° C | 78% | 1013.7 hPa | 0 mm | - | 46 W/m² | - |
| 1777331768 | 25.56° C | 76% | 1013.7 hPa | 0 mm | - | 51 W/m² | - |
| 1777331464 | 26.11° C | 76% | 1013.6 hPa | 0 mm | - | 66 W/m² | - |
| 1777331162 | 26.11° C | 75% | 1013.9 hPa | 0 mm | - | 64 W/m² | - |
| 1777330859 | 26.11° C | 74% | 1013.6 hPa | 0 mm | - | 75 W/m² | - |
| 1777330555 | 26.67° C | 74% | 1014 hPa | 0 mm | - | 89 W/m² | - |
| 1777330253 | 26.67° C | 74% | 1013.8 hPa | 0 mm | - | 118 W/m² | - |
| 1777329951 | 26.67° C | 73% | 1013.7 hPa | 0 mm | - | 99 W/m² | - |
| 1777329650 | 26.67° C | 74% | 1013.6 hPa | 0 mm | - | 85 W/m² | - |
| 1777329348 | 26.67° C | 73% | 1013.6 hPa | 0 mm | - | 75 W/m² | - |
| 1777329044 | 26.67° C | 71% | 1013.6 hPa | 0 mm | - | 111 W/m² | - |
| 1777328742 | 26.67° C | 70% | 1013.8 hPa | 0 mm | - | 121 W/m² | - |
| 1777328440 | 27.22° C | 69% | 1013.6 hPa | 0 mm | - | 97 W/m² | - |
| 1777328138 | 27.22° C | 69% | 1013.5 hPa | 0 mm | - | 98 W/m² | - |
| 1777327837 | 27.22° C | 69% | 1013.5 hPa | 0 mm | - | 110 W/m² | - |
| 1777327534 | 27.22° C | 70% | 1013.5 hPa | 0 mm | - | 91 W/m² | - |
| 1777327231 | 27.78° C | 69% | 1013.6 hPa | 0 mm | - | 123 W/m² | - |
| 1777326928 | 27.78° C | 69% | 1013.6 hPa | 0 mm | - | 105 W/m² | - |
| 1777326625 | 27.78° C | 71% | 1014.1 hPa | 0 mm | - | 108 W/m² | - |
| 1777326322 | 27.22° C | 67% | 1013.5 hPa | 0 mm | - | 223 W/m² | - |
* Rain latest hour (hover to see other rain measurements)
** Current wind speed in m/s (hover to see current wind gust speed)